Van Buren, Minnesota
Current Conditions -  °F | °C
As of 10:16 AM on Tuesday 21 Oct 2014 (Local Time) from KCOQ Reporting Station
Overcast Overcast  
Wind Chill: 38°   Ceiling: 1800
Heat Index: 43°   Visibility: 10mi
Dew Point: 34°   Wind: 8mph
Humidity: 70%   Direction: 110°ESE
Pressure: 30.24"   Gusts: NA
Location:  46.9584°N, 92.9445°W
Report Text: KCOQ 211516Z AUTO 11007KT 10SM OVC018 06/01 A3024 RMK AO2
Loading
Personal Weather Stations






























Interactive Weather Map
Tropical Storm Tracking
New forecast layout! Learn more

10-Day Weather Forecast

Advertisements
Track Severe Weather on mobile